| time (UTC) | temp C | wind direction | speed KPH | gust KPH | rain 1hr cm | rain 24hr cm | rain mn cm | humidity % | barometer mb |
| 20260507185249 | 17 | 298 | 6.4 | 6.4 | 0.00 | 0.00 | 0.00 | 40 | 1009.7 |
| 20260507184747 | 18 | 274 | 1.6 | 6.4 | 0.00 | 0.00 | 0.00 | 38 | 1009.9 |
| 20260507184245 | 18 | 242 | 6.4 | 6.4 | 0.00 | 0.00 | 0.00 | 37 | 1009.7 |
| 20260507183741 | 18 | 258 | 4.8 | 17.7 | 0.00 | 0.00 | 0.00 | 37 | 1009.8 |
| 20260507183238 | 18 | 295 | 11.3 | 14.5 | 0.00 | 0.00 | 0.00 | 40 | 1009.9 |
| 20260507182736 | 18 | 284 | 3.2 | 11.3 | 0.00 | 0.00 | 0.00 | 37 | 1009.8 |
| 20260507182235 | 17 | 267 | 6.4 | 14.5 | 0.00 | 0.00 | 0.00 | 39 | 1009.8 |
| 20260507181733 | 18 | 353 | 8.0 | 14.5 | 0.00 | 0.00 | 0.00 | 46 | 1009.8 |
| 20260507181229 | 17 | 316 | 9.7 | 16.1 | 0.00 | 0.00 | 0.00 | 39 | 1009.9 |
| 20260507180726 | 18 | 243 | 6.4 | 9.7 | 0.00 | 0.00 | 0.00 | 37 | 1010.0 |
| 20260507180223 | 17 | 92 | 8.0 | 12.9 | 0.00 | 0.00 | 0.00 | 37 | 1010.0 |
| 20260507175718 | 18 | 290 | 12.9 | 17.7 | 0.00 | 0.00 | 0.00 | 38 | 1010.1 |
| 20260507175215 | 17 | 335 | 3.2 | 6.4 | 0.00 | 0.00 | 0.00 | 37 | 1010.3 |
| 20260507174713 | 18 | 295 | 6.4 | 6.4 | 0.00 | 0.00 | 0.00 | 40 | 1010.4 |
| 20260507174211 | 18 | 15 | 1.6 | 6.4 | 0.00 | 0.00 | 0.00 | 43 | 1010.5 |
| 20260507173708 | 17 | 104 | 1.6 | 3.2 | 0.00 | 0.00 | 0.00 | 41 | 1010.6 |
| 20260507173205 | 17 | 278 | 8.0 | 11.3 | 0.00 | 0.00 | 0.00 | 43 | 1010.6 |
| 20260507172701 | 18 | 229 | 4.8 | 9.7 | 0.00 | 0.00 | 0.00 | 42 | 1010.9 |
| 20260507172158 | 17 | 271 | 4.8 | 6.4 | 0.00 | 0.00 | 0.00 | 42 | 1010.8 |
| 20260507171658 | 16 | 323 | 1.6 | 3.2 | 0.00 | 0.00 | 0.00 | 41 | 1011.0 |
| 20260507171156 | 17 | 334 | 0.0 | 3.2 | 0.00 | 0.00 | 0.00 | 39 | 1011.3 |
| 20260507170653 | 17 | 252 | 3.2 | 9.7 | 0.00 | 0.00 | 0.00 | 44 | 1011.3 |
| 20260507170150 | 17 | 255 | 1.6 | 3.2 | 0.00 | 0.00 | 0.00 | 38 | 1011.5 |
| 20260507165645 | 16 | 313 | 11.3 | 17.7 | 0.00 | 0.00 | 0.00 | 42 | 1011.7 |
| 20260507165142 | 16 | 33 | 3.2 | 6.4 | 0.00 | 0.00 | 0.00 | 44 | 1011.6 |
| 20260507164637 | 16 | 328 | 11.3 | 16.1 | 0.00 | 0.00 | 0.00 | 43 | 1011.9 |
| 20260507164135 | 16 | 283 | 3.2 | 9.7 | 0.00 | 0.00 | 0.00 | 44 | 1011.8 |
| 20260507163632 | 17 | 228 | 1.6 | 3.2 | 0.00 | 0.00 | 0.00 | 43 | 1011.9 |
| 20260507163130 | 16 | 222 | 1.6 | 4.8 | 0.00 | 0.00 | 0.00 | 45 | 1011.8 |
| 20260507162626 | 16 | 203 | 4.8 | 9.7 | 0.00 | 0.00 | 0.00 | 45 | 1011.8 |
| 20260507162122 | 16 | 234 | 8.0 | 11.3 | 0.00 | 0.00 | 0.00 | 43 | 1012.0 |
| 20260507161618 | 15 | 292 | 4.8 | 11.3 | 0.00 | 0.00 | 0.00 | 44 | 1012.0 |
| 20260507161115 | 16 | 268 | 1.6 | 11.3 | 0.00 | 0.00 | 0.00 | 43 | 1012.0 |
| 20260507160612 | 15 | 273 | 1.6 | 3.2 | 0.00 | 0.00 | 0.00 | 53 | 1012.2 |
| 20260507160108 | 15 | 263 | 4.8 | 6.4 | 0.00 | 0.00 | 0.00 | 43 | 1012.5 |
| 20260507155603 | 15 | 211 | 6.4 | 9.7 | 0.00 | 0.00 | 0.00 | 46 | 1012.4 |
| 20260507155100 | 15 | 317 | 6.4 | 12.9 | 0.00 | 0.00 | 0.00 | 46 | 1012.5 |
| 20260507154557 | 14 | 266 | 3.2 | 11.3 | 0.00 | 0.00 | 0.00 | 49 | 1012.5 |
| 20260507154054 | 15 | 157 | 1.6 | 3.2 | 0.00 | 0.00 | 0.00 | 45 | 1012.5 |
| 20260507153551 | 14 | 264 | 4.8 | 6.4 | 0.00 | 0.00 | 0.00 | 53 | 1012.7 |
| 20260507153047 | 14 | 12 | 8.0 | 11.3 | 0.00 | 0.00 | 0.00 | 50 | 1012.5 |
| 20260507152543 | 15 | 245 | 0.0 | 4.8 | 0.00 | 0.00 | 0.00 | 47 | 1012.8 |
| 20260507152040 | 14 | 319 | 4.8 | 9.7 | 0.00 | 0.00 | 0.00 | 52 | 1012.7 |
| 20260507151536 | 14 | 333 | 3.2 | 6.4 | 0.00 | 0.00 | 0.00 | 47 | 1012.8 |
| 20260507151033 | 13 | 243 | 1.6 | 4.8 | 0.00 | 0.00 | 0.00 | 48 | 1012.9 |
| 20260507150530 | 13 | 308 | 8.0 | 12.9 | 0.00 | 0.00 | 0.00 | 49 | 1013.1 |
| 20260507150027 | 13 | 267 | 3.2 | 6.4 | 0.00 | 0.00 | 0.00 | 46 | 1013.1 |
| 20260507145521 | 13 | 272 | 6.4 | 14.5 | 0.00 | 0.00 | 0.00 | 49 | 1013.3 |
| 20260507145020 | 13 | 313 | 4.8 | 6.4 | 0.00 | 0.00 | 0.00 | 56 | 1013.2 |
| 20260507144516 | 13 | 291 | 11.3 | 12.9 | 0.00 | 0.00 | 0.00 | 49 | 1013.3 |
| 20260507144014 | 13 | 306 | 4.8 | 9.7 | 0.00 | 0.00 | 0.00 | 50 | 1013.5 |
| 20260507143511 | 13 | 220 | 4.8 | 6.4 | 0.00 | 0.00 | 0.00 | 51 | 1013.6 |
| 20260507143008 | 13 | 293 | 9.7 | 12.9 | 0.00 | 0.00 | 0.00 | 51 | 1013.5 |
| 20260507142503 | 13 | 323 | 8.0 | 17.7 | 0.00 | 0.00 | 0.00 | 53 | 1013.6 |
| 20260507142000 | 12 | 322 | 6.4 | 12.9 | 0.00 | 0.00 | 0.00 | 54 | 1013.7 |
| 20260507141456 | 11 | 262 | 4.8 | 12.9 | 0.00 | 0.00 | 0.00 | 57 | 1013.6 |
| 20260507140953 | 12 | 300 | 14.5 | 17.7 | 0.00 | 0.00 | 0.00 | 55 | 1013.8 |
| 20260507140450 | 13 | 239 | 0.0 | 1.6 | 0.00 | 0.00 | 0.00 | 55 | 1013.8 |
| 20260507135947 | 13 | 295 | 8.0 | 12.9 | 0.00 | 0.00 | 0.00 | 59 | 1013.7 |
| 20260507135444 | 12 | 6 | 6.4 | 9.7 | 0.00 | 0.00 | 0.00 | 57 | 1013.7 |
| 20260507134941 | 11 | 311 | 0.0 | 6.4 | 0.00 | 0.00 | 0.00 | 58 | 1013.9 |
| 20260507134438 | 11 | 27 | 1.6 | 12.9 | 0.00 | 0.00 | 0.00 | 56 | 1014.0 |
| 20260507133934 | 11 | 323 | 4.8 | 9.7 | 0.00 | 0.00 | 0.00 | 58 | 1014.2 |
| 20260507133430 | 12 | 301 | 9.7 | 20.9 | 0.00 | 0.00 | 0.00 | 55 | 1013.9 |
| 20260507132929 | 11 | 239 | 1.6 | 9.7 | 0.00 | 0.00 | 0.00 | 59 | 1014.2 |
| 20260507132424 | 11 | 324 | 9.7 | 11.3 | 0.00 | 0.00 | 0.00 | 60 | 1014.2 |
| 20260507131921 | 11 | 268 | 1.6 | 6.4 | 0.00 | 0.00 | 0.00 | 62 | 1014.1 |
| 20260507131418 | 11 | 331 | 3.2 | 4.8 | 0.00 | 0.00 | 0.00 | 66 | 1014.2 |
| 20260507130915 | 11 | 260 | 0.0 | 3.2 | 0.00 | 0.00 | 0.00 | 65 | 1014.1 |
| 20260507130412 | 11 | 278 | 1.6 | 1.6 | 0.00 | 0.00 | 0.00 | 67 | 1014.4 |
| 20260507125911 | 10 | 278 | 1.6 | 1.6 | 0.00 | 0.00 | 0.00 | 66 | 1014.5 |
| 20260507125409 | 10 | 279 | 0.0 | 0.0 | 0.00 | 0.00 | 0.00 | 68 | 1014.7 |
| 20260507124906 | 10 | 279 | 1.6 | 1.6 | 0.00 | 0.00 | 0.00 | 72 | 1014.4 |
| 20260507124401 | 10 | 289 | 1.6 | 3.2 | 0.00 | 0.00 | 0.00 | 70 | 1014.6 |
| 20260507123900 | 10 | 274 | 0.0 | 0.0 | 0.00 | 0.00 | 0.00 | 71 | 1014.4 |
| 20260507123357 | 10 | 274 | 0.0 | 3.2 | 0.00 | 0.00 | 0.00 | 69 | 1014.5 |
| 20260507122853 | 10 | 287 | 1.6 | 1.6 | 0.00 | 0.00 | 0.00 | 72 | 1014.5 |
| 20260507122349 | 10 | 298 | 1.6 | 1.6 | 0.00 | 0.00 | 0.00 | 71 | 1014.5 |
| 20260507121845 | 10 | 299 | 3.2 | 4.8 | 0.00 | 0.00 | 0.00 | 73 | 1014.2 |
| 20260507121341 | 10 | 350 | 0.0 | 1.6 | 0.00 | 0.00 | 0.00 | 72 | 1014.2 |
| 20260507120837 | 10 | 351 | 1.6 | 3.2 | 0.00 | 0.00 | 0.00 | 70 | 1014.1 |
| 20260507120334 | 10 | 345 | 0.0 | 0.0 | 0.00 | 0.00 | 0.00 | 70 | 1014.0 |
| 20260507115830 | 10 | 352 | 0.0 | 1.6 | 0.00 | 0.00 | 0.00 | 71 | 1014.1 |
| 20260507115326 | 10 | 346 | 0.0 | 3.2 | 0.00 | 0.00 | 0.00 | 69 | 1014.1 |
| 20260507114822 | 10 | 301 | 0.0 | 0.0 | 0.00 | 0.00 | 0.00 | 71 | 1014.4 |
| 20260507114319 | 10 | 301 | 0.0 | 0.0 | 0.00 | 0.00 | 0.00 | 71 | 1014.4 |
| 20260507113817 | 9 | 301 | 0.0 | 0.0 | 0.00 | 0.00 | 0.00 | 70 | 1014.1 |
| 20260507113313 | 9 | 301 | 0.0 | 0.0 | 0.00 | 0.00 | 0.00 | 68 | 1014.0 |
| 20260507112811 | 9 | 352 | 0.0 | 0.0 | 0.00 | 0.00 | 0.00 | 69 | 1013.9 |
| 20260507112308 | 9 | 352 | 0.0 | 1.6 | 0.00 | 0.00 | 0.00 | 71 | 1014.0 |
| 20260507111806 | 9 | 352 | 0.0 | 0.0 | 0.00 | 0.00 | 0.00 | 67 | 1014.0 |
| 20260507111302 | 9 | 352 | 1.6 | 3.2 | 0.00 | 0.00 | 0.00 | 68 | 1014.1 |
| 20260507110758 | 9 | 344 | 1.6 | 1.6 | 0.00 | 0.00 | 0.00 | 70 | 1014.0 |
| 20260507110255 | 9 | 299 | 3.2 | 3.2 | 0.00 | 0.00 | 0.00 | 71 | 1013.9 |
| 20260507105752 | 9 | 274 | 0.0 | 0.0 | 0.00 | 0.00 | 0.00 | 72 | 1013.9 |
| 20260507105247 | 9 | 276 | 1.6 | 4.8 | 0.00 | 0.00 | 0.00 | 70 | 1014.0 |
| 20260507104745 | 9 | 290 | 1.6 | 4.8 | 0.00 | 0.00 | 0.00 | 71 | 1013.7 |
| 20260507104241 | 9 | 302 | 3.2 | 4.8 | 0.00 | 0.00 | 0.00 | 69 | 1013.6 |
| 20260507103738 | 9 | 343 | 1.6 | 3.2 | 0.00 | 0.00 | 0.00 | 72 | 1013.6 |
| 20260507103234 | 9 | 293 | 1.6 | 3.2 | 0.00 | 0.00 | 0.00 | 73 | 1013.7 |
| 20260507102730 | 8 | 293 | 0.0 | 1.6 | 0.00 | 0.00 | 0.00 | 76 | 1013.4 |
| 20260507102227 | 8 | 293 | 1.6 | 3.2 | 0.00 | 0.00 | 0.00 | 74 | 1013.1 |
| 20260507101723 | 9 | 293 | 0.0 | 0.0 | 0.00 | 0.00 | 0.00 | 75 | 1013.3 |
| 20260507101219 | 9 | 315 | 3.2 | 3.2 | 0.00 | 0.00 | 0.00 | 72 | 1013.3 |
| 20260507100716 | 9 | 302 | 1.6 | 4.8 | 0.00 | 0.00 | 0.00 | 71 | 1013.3 |
| 20260507100214 | 9 | 289 | 0.0 | 1.6 | 0.00 | 0.00 | 0.00 | 75 | 1013.4 |
| 20260507095712 | 9 | 314 | 4.8 | 6.4 | 0.00 | 0.00 | 0.00 | 73 | 1013.1 |
| 20260507095208 | 9 | 316 | 4.8 | 9.7 | 0.00 | 0.00 | 0.00 | 73 | 1013.1 |
| 20260507094705 | 9 | 300 | 1.6 | 9.7 | 0.00 | 0.00 | 0.00 | 73 | 1013.1 |
| 20260507094202 | 9 | 277 | 6.4 | 6.4 | 0.00 | 0.00 | 0.00 | 74 | 1013.1 |
| 20260507093654 | 10 | 287 | 1.6 | 4.8 | 0.00 | 0.00 | 0.00 | 73 | 1012.9 |
| 20260507093152 | 10 | 278 | 8.0 | 9.7 | 0.00 | 0.00 | 0.00 | 73 | 1012.9 |
| 20260507092649 | 10 | 298 | 4.8 | 6.4 | 0.00 | 0.00 | 0.00 | 73 | 1013.0 |
| 20260507092145 | 10 | 284 | 6.4 | 9.7 | 0.00 | 0.00 | 0.00 | 73 | 1013.0 |
| 20260507091642 | 10 | 302 | 8.0 | 9.7 | 0.00 | 0.00 | 0.00 | 72 | 1012.8 |
| 20260507091138 | 10 | 270 | 4.8 | 9.7 | 0.00 | 0.00 | 0.00 | 73 | 1013.0 |
| 20260507090634 | 10 | 298 | 4.8 | 6.4 | 0.00 | 0.00 | 0.00 | 73 | 1013.0 |
| 20260507090132 | 10 | 290 | 6.4 | 9.7 | 0.00 | 0.00 | 0.00 | 74 | 1012.9 |
| 20260507085628 | 10 | 282 | 8.0 | 11.3 | 0.00 | 0.00 | 0.00 | 77 | 1013.1 |
| 20260507085125 | 10 | 302 | 6.4 | 9.7 | 0.00 | 0.00 | 0.00 | 80 | 1013.1 |
| 20260507084622 | 10 | 331 | 4.8 | 9.7 | 0.00 | 0.00 | 0.00 | 83 | 1013.2 |
| 20260507084119 | 10 | 321 | 1.6 | 3.2 | 0.00 | 0.00 | 0.00 | 84 | 1013.0 |
| 20260507083615 | 10 | 312 | 4.8 | 4.8 | 0.00 | 0.00 | 0.00 | 84 | 1012.9 |
| 20260507083112 | 10 | 313 | 3.2 | 4.8 | 0.00 | 0.00 | 0.00 | 83 | 1013.1 |
| 20260507082608 | 10 | 22 | 1.6 | 1.6 | 0.00 | 0.00 | 0.00 | 82 | 1012.8 |
| 20260507082104 | 10 | 328 | 1.6 | 1.6 | 0.00 | 0.00 | 0.00 | 82 | 1012.9 |
| 20260507081600 | 10 | 290 | 0.0 | 0.0 | 0.00 | 0.00 | 0.00 | 81 | 1013.0 |
| 20260507081057 | 10 | 321 | 3.2 | 3.2 | 0.00 | 0.00 | 0.00 | 81 | 1012.8 |
| 20260507080553 | 10 | 286 | 0.0 | 4.8 | 0.00 | 0.00 | 0.00 | 81 | 1012.8 |
| 20260507080050 | 10 | 270 | 1.6 | 4.8 | 0.00 | 0.00 | 0.00 | 82 | 1012.7 |
| 20260507075545 | 10 | 227 | 0.0 | 3.2 | 0.00 | 0.00 | 0.00 | 81 | 1012.7 |
| 20260507075041 | 10 | 318 | 3.2 | 4.8 | 0.00 | 0.00 | 0.00 | 81 | 1012.7 |
| 20260507074538 | 10 | 246 | 0.0 | 1.6 | 0.00 | 0.00 | 0.00 | 81 | 1012.5 |
| 20260507074037 | 10 | 279 | 6.4 | 9.7 | 0.00 | 0.00 | 0.00 | 83 | 1012.5 |
| 20260507073533 | 10 | 318 | 0.0 | 0.0 | 0.00 | 0.00 | 0.00 | 84 | 1012.5 |
| 20260507073029 | 10 | 318 | 0.0 | 0.0 | 0.00 | 0.00 | 0.00 | 83 | 1012.6 |
| 20260507072527 | 10 | 318 | 0.0 | 0.0 | 0.00 | 0.00 | 0.00 | 83 | 1012.3 |
| 20260507072024 | 10 | 351 | 1.6 | 3.2 | 0.00 | 0.00 | 0.00 | 81 | 1012.6 |
| 20260507071521 | 10 | 354 | 0.0 | 0.0 | 0.00 | 0.00 | 0.00 | 82 | 1012.5 |
| 20260507071018 | 10 | 354 | 3.2 | 3.2 | 0.00 | 0.00 | 0.00 | 81 | 1012.4 |
| 20260507070515 | 11 | 348 | 1.6 | 3.2 | 0.00 | 0.00 | 0.00 | 81 | 1012.5 |
| 20260507070013 | 11 | 267 | 3.2 | 3.2 | 0.00 | 0.00 | 0.00 | 81 | 1012.4 |
| 20260507065508 | 11 | 265 | 0.0 | 0.0 | 0.00 | 0.00 | 0.00 | 81 | 1012.6 |
| 20260507065005 | 11 | 265 | 0.0 | 0.0 | 0.00 | 0.00 | 0.00 | 80 | 1012.7 |
| 20260507064503 | 11 | 265 | 0.0 | 0.0 | 0.00 | 0.00 | 0.00 | 82 | 1012.8 |
| 20260507064001 | 11 | 265 | 0.0 | 0.0 | 0.00 | 0.00 | 0.00 | 80 | 1012.6 |
| 20260507063458 | 11 | 265 | 0.0 | 0.0 | 0.00 | 0.00 | 0.00 | 81 | 1012.9 |
| 20260507062955 | 11 | 265 | 0.0 | 0.0 | 0.00 | 0.00 | 0.00 | 80 | 1012.8 |
| 20260507062452 | 11 | 265 | 1.6 | 1.6 | 0.00 | 0.00 | 0.00 | 79 | 1012.9 |
| 20260507061949 | 11 | 287 | 0.0 | 1.6 | 0.00 | 0.00 | 0.00 | 80 | 1012.9 |
| 20260507061447 | 11 | 288 | 0.0 | 1.6 | 0.00 | 0.00 | 0.00 | 80 | 1012.8 |
| 20260507060945 | 11 | 277 | 1.6 | 1.6 | 0.00 | 0.00 | 0.00 | 80 | 1012.9 |
| 20260507060442 | 11 | 277 | 0.0 | 1.6 | 0.00 | 0.00 | 0.00 | 80 | 1012.9 |
| 20260507055938 | 11 | 283 | 0.0 | 0.0 | 0.00 | 0.00 | 0.00 | 79 | 1013.1 |
| 20260507055434 | 11 | 257 | 0.0 | 4.8 | 0.00 | 0.00 | 0.00 | 79 | 1013.1 |
| 20260507054931 | 11 | 273 | 3.2 | 6.4 | 0.00 | 0.00 | 0.00 | 79 | 1013.1 |
| 20260507054427 | 11 | 263 | 1.6 | 3.2 | 0.00 | 0.00 | 0.00 | 79 | 1013.0 |
| 20260507053924 | 11 | 295 | 1.6 | 4.8 | 0.00 | 0.00 | 0.00 | 80 | 1013.2 |
| 20260507053422 | 11 | 338 | 4.8 | 6.4 | 0.00 | 0.00 | 0.00 | 79 | 1012.9 |
| 20260507052920 | 11 | 256 | 3.2 | 3.2 | 0.00 | 0.00 | 0.00 | 80 | 1013.2 |
| 20260507052417 | 11 | 247 | 1.6 | 3.2 | 0.00 | 0.00 | 0.00 | 79 | 1012.9 |
| 20260507051909 | 11 | 260 | 0.0 | 1.6 | 0.00 | 0.00 | 0.00 | 79 | 1012.8 |
| 20260507051407 | 11 | 202 | 1.6 | 3.2 | 0.00 | 0.00 | 0.00 | 78 | 1012.8 |
| 20260507050903 | 11 | 246 | 0.0 | 1.6 | 0.00 | 0.00 | 0.00 | 79 | 1012.3 |
| 20260507050359 | 11 | 268 | 1.6 | 4.8 | 0.00 | 0.00 | 0.00 | 79 | 1012.7 |
| 20260507045856 | 11 | 282 | 0.0 | 3.2 | 0.00 | 0.00 | 0.00 | 80 | 1012.8 |
| 20260507045353 | 11 | 243 | 3.2 | 4.8 | 0.00 | 0.00 | 0.00 | 79 | 1012.7 |
| 20260507044851 | 11 | 271 | 0.0 | 0.0 | 0.00 | 0.00 | 0.00 | 80 | 1012.7 |
| 20260507044347 | 11 | 267 | 6.4 | 11.3 | 0.00 | 0.00 | 0.00 | 79 | 1012.9 |
| 20260507043843 | 11 | 243 | 1.6 | 3.2 | 0.00 | 0.00 | 0.00 | 80 | 1012.6 |
| 20260507043340 | 11 | 292 | 3.2 | 6.4 | 0.00 | 0.00 | 0.00 | 80 | 1012.8 |
| 20260507042836 | 11 | 277 | 1.6 | 3.2 | 0.00 | 0.00 | 0.00 | 81 | 1012.7 |
| 20260507042331 | 11 | 228 | 0.0 | 1.6 | 0.00 | 0.00 | 0.00 | 80 | 1012.8 |
| 20260507041828 | 11 | 310 | 1.6 | 4.8 | 0.00 | 0.00 | 0.00 | 80 | 1012.8 |
| 20260507041325 | 11 | 278 | 1.6 | 11.3 | 0.00 | 0.00 | 0.00 | 81 | 1013.1 |
| 20260507040822 | 11 | 299 | 3.2 | 4.8 | 0.00 | 0.00 | 0.00 | 81 | 1012.5 |
| 20260507040318 | 11 | 229 | 0.0 | 0.0 | 0.00 | 0.41 | 0.41 | 81 | 1012.5 |
| 20260507035814 | 11 | 261 | 0.0 | 9.7 | 0.00 | 0.41 | 0.41 | 81 | 1012.8 |
| 20260507035310 | 11 | 279 | 1.6 | 4.8 | 0.00 | 0.41 | 0.41 | 82 | 1012.7 |
| 20260507034808 | 11 | 249 | 3.2 | 11.3 | 0.00 | 0.41 | 0.41 | 83 | 1013.3 |
| 20260507034304 | 11 | 245 | 4.8 | 9.7 | 0.00 | 0.41 | 0.41 | 83 | 1013.0 |
| 20260507033803 | 11 | 313 | 4.8 | 11.3 | 0.00 | 0.41 | 0.41 | 83 | 1013.0 |
| 20260507033300 | 11 | 307 | 1.6 | 4.8 | 0.00 | 0.41 | 0.41 | 84 | 1012.3 |
| 20260507032757 | 11 | 297 | 8.0 | 11.3 | 0.00 | 0.41 | 0.41 | 85 | 1012.2 |
| 20260507032252 | 11 | 282 | 4.8 | 6.4 | 0.00 | 0.41 | 0.41 | 85 | 1012.7 |
| 20260507031749 | 11 | 295 | 1.6 | 1.6 | 0.00 | 0.41 | 0.41 | 86 | 1012.9 |
| 20260507031247 | 11 | 217 | 0.0 | 4.8 | 0.00 | 0.41 | 0.41 | 86 | 1012.9 |
| 20260507030743 | 12 | 300 | 3.2 | 4.8 | 0.00 | 0.41 | 0.41 | 86 | 1012.8 |
| 20260507030240 | 12 | 353 | 4.8 | 14.5 | 0.00 | 0.41 | 0.41 | 87 | 1012.6 |
| 20260507025738 | 12 | 282 | 11.3 | 20.9 | 0.00 | 0.41 | 0.41 | 86 | 1012.8 |
| 20260507025234 | 12 | 287 | 0.0 | 6.4 | 0.00 | 0.41 | 0.41 | 87 | 1012.7 |
| 20260507024733 | 12 | 254 | 3.2 | 4.8 | 0.00 | 0.41 | 0.41 | 87 | 1012.8 |
| 20260507024230 | 12 | 232 | 4.8 | 6.4 | 0.00 | 0.41 | 0.41 | 86 | 1012.6 |
| 20260507023725 | 12 | 297 | 11.3 | 14.5 | 0.00 | 0.41 | 0.41 | 86 | 1012.4 |
| 20260507023222 | 12 | 335 | 4.8 | 6.4 | 0.00 | 0.41 | 0.41 | 86 | 1012.3 |
| 20260507022720 | 12 | 192 | 6.4 | 9.7 | 0.00 | 0.41 | 0.41 | 86 | 1012.1 |
| 20260507022215 | 12 | 344 | 1.6 | 11.3 | 0.00 | 0.41 | 0.41 | 86 | 1012.2 |
| 20260507021712 | 12 | 287 | 6.4 | 9.7 | 0.00 | 0.41 | 0.41 | 86 | 1012.2 |
| 20260507021207 | 12 | 272 | 3.2 | 12.9 | 0.00 | 0.41 | 0.41 | 85 | 1012.1 |
| 20260507020706 | 12 | 282 | 0.0 | 4.8 | 0.00 | 0.41 | 0.41 | 86 | 1011.9 |
| 20260507020202 | 12 | 351 | 1.6 | 9.7 | 0.00 | 0.41 | 0.41 | 85 | 1012.0 |
| 20260507015700 | 12 | 255 | 1.6 | 11.3 | 0.00 | 0.41 | 0.41 | 85 | 1012.1 |
| 20260507015157 | 12 | 199 | 1.6 | 6.4 | 0.00 | 0.41 | 0.41 | 85 | 1012.0 |
| 20260507014653 | 12 | 281 | 1.6 | 6.4 | 0.00 | 0.41 | 0.41 | 85 | 1012.1 |
| 20260507014149 | 13 | 266 | 3.2 | 4.8 | 0.00 | 0.41 | 0.41 | 85 | 1012.0 |
| 20260507013646 | 12 | 243 | 1.6 | 3.2 | 0.00 | 0.41 | 0.41 | 85 | 1012.0 |
| 20260507013143 | 13 | 284 | 0.0 | 3.2 | 0.00 | 0.41 | 0.41 | 85 | 1012.0 |
| 20260507012641 | 13 | 233 | 3.2 | 6.4 | 0.00 | 0.41 | 0.41 | 84 | 1012.2 |
| 20260507012136 | 13 | 291 | 3.2 | 6.4 | 0.00 | 0.41 | 0.41 | 84 | 1012.1 |
| 20260507011635 | 13 | 307 | 4.8 | 4.8 | 0.00 | 0.41 | 0.41 | 84 | 1011.9 |
| 20260507011131 | 13 | 241 | 4.8 | 6.4 | 0.00 | 0.41 | 0.41 | 84 | 1012.0 |
| 20260507010625 | 13 | 328 | 8.0 | 9.7 | 0.00 | 0.41 | 0.41 | 84 | 1011.8 |
| 20260507010122 | 13 | 262 | 1.6 | 4.8 | 0.00 | 0.41 | 0.41 | 84 | 1011.3 |
| 20260507005619 | 13 | 280 | 3.2 | 4.8 | 0.00 | 0.41 | 0.41 | 84 | 1011.5 |
| 20260507005115 | 13 | 286 | 6.4 | 9.7 | 0.00 | 0.41 | 0.41 | 83 | 1011.7 |
| 20260507004612 | 13 | 273 | 4.8 | 9.7 | 0.00 | 0.41 | 0.41 | 83 | 1011.8 |
| 20260507004110 | 13 | 259 | 3.2 | 12.9 | 0.00 | 0.41 | 0.41 | 83 | 1011.9 |
| 20260507003606 | 13 | 287 | 0.0 | 4.8 | 0.00 | 0.41 | 0.41 | 83 | 1012.2 |
| 20260507003101 | 13 | 252 | 8.0 | 12.9 | 0.00 | 0.41 | 0.41 | 82 | 1012.2 |
| 20260507002558 | 13 | 256 | 0.0 | 3.2 | 0.00 | 0.41 | 0.41 | 83 | 1012.1 |
| 20260507002053 | 14 | 279 | 0.0 | 3.2 | 0.00 | 0.41 | 0.41 | 83 | 1011.9 |
| 20260507001550 | 14 | 244 | 6.4 | 6.4 | 0.00 | 0.41 | 0.41 | 83 | 1012.0 |
| 20260507001048 | 14 | 256 | 0.0 | 3.2 | 0.00 | 0.41 | 0.41 | 83 | 1012.0 |
| 20260507000543 | 14 | 181 | 0.0 | 3.2 | 0.00 | 0.41 | 0.41 | 83 | 1011.8 |
| 20260507000039 | 14 | 233 | 3.2 | 3.2 | 0.00 | 0.41 | 0.41 | 83 | 1011.8 |
| 20260506235537 | 14 | 320 | 3.2 | 6.4 | 0.00 | 0.41 | 0.41 | 82 | 1011.8 |
| 20260506235032 | 14 | 272 | 4.8 | 9.7 | 0.00 | 0.41 | 0.41 | 82 | 1011.5 |
| 20260506234530 | 15 | 326 | 4.8 | 9.7 | 0.00 | 0.41 | 0.41 | 83 | 1011.4 |
| 20260506234027 | 15 | 281 | 12.9 | 16.1 | 0.00 | 0.41 | 0.41 | 83 | 1011.6 |
| 20260506233524 | 15 | 236 | 0.0 | 4.8 | 0.00 | 0.41 | 0.41 | 84 | 1011.6 |
| 20260506233021 | 15 | 238 | 0.0 | 3.2 | 0.00 | 0.41 | 0.41 | 85 | 1011.2 |
| 20260506232517 | 15 | 238 | 1.6 | 3.2 | 0.00 | 0.41 | 0.41 | 84 | 1010.9 |
| 20260506232012 | 15 | 244 | 1.6 | 3.2 | 0.00 | 0.41 | 0.41 | 86 | 1011.0 |
| 20260506231510 | 15 | 237 | 0.0 | 1.6 | 0.00 | 0.41 | 0.41 | 86 | 1010.9 |
| 20260506231008 | 15 | 250 | 1.6 | 3.2 | 0.00 | 0.41 | 0.41 | 85 | 1010.4 |
| 20260506230504 | 15 | 248 | 1.6 | 3.2 | 0.00 | 0.41 | 0.41 | 85 | 1010.5 |
| 20260506230001 | 16 | 87 | 1.6 | 6.4 | 0.00 | 0.41 | 0.41 | 84 | 1010.3 |
| 20260506225458 | 16 | 117 | 1.6 | 4.8 | 0.00 | 0.41 | 0.41 | 83 | 1010.8 |
| 20260506224954 | 16 | 227 | 3.2 | 11.3 | 0.00 | 0.41 | 0.41 | 84 | 1010.6 |
| 20260506224451 | 16 | 255 | 1.6 | 16.1 | 0.00 | 0.41 | 0.41 | 84 | 1010.5 |
| 20260506223948 | 16 | 252 | 1.6 | 6.4 | 0.00 | 0.41 | 0.41 | 84 | 1010.3 |
| 20260506223444 | 16 | 250 | 3.2 | 4.8 | 0.00 | 0.41 | 0.41 | 85 | 1010.5 |
| 20260506222936 | 16 | 309 | 0.0 | 3.2 | 0.00 | 0.41 | 0.41 | 85 | 1010.4 |
| 20260506222432 | 16 | 216 | 1.6 | 12.9 | 0.00 | 0.41 | 0.41 | 85 | 1010.3 |
| 20260506221929 | 16 | 298 | 0.0 | 4.8 | 0.00 | 0.41 | 0.41 | 86 | 1010.2 |
| 20260506221426 | 16 | 231 | 0.0 | 4.8 | 0.00 | 0.41 | 0.41 | 85 | 1010.3 |
| 20260506220924 | 16 | 317 | 1.6 | 11.3 | 0.00 | 0.41 | 0.41 | 84 | 1010.2 |
| 20260506220419 | 17 | 193 | 0.0 | 9.7 | 0.00 | 0.41 | 0.41 | 83 | 1010.3 |
| 20260506215916 | 17 | 256 | 3.2 | 4.8 | 0.00 | 0.41 | 0.41 | 85 | 1010.2 |
| 20260506215412 | 17 | 14 | 0.0 | 3.2 | 0.00 | 0.41 | 0.41 | 85 | 1009.9 |
| 20260506214908 | 17 | 210 | 0.0 | 4.8 | 0.00 | 0.41 | 0.41 | 85 | 1009.7 |
| 20260506214405 | 17 | 229 | 0.0 | 3.2 | 0.00 | 0.41 | 0.41 | 84 | 1009.8 |
| 20260506213902 | 17 | 241 | 4.8 | 4.8 | 0.00 | 0.41 | 0.41 | 84 | 1009.5 |
| 20260506213359 | 17 | 317 | 3.2 | 4.8 | 0.00 | 0.41 | 0.41 | 85 | 1009.5 |
| 20260506212852 | 17 | 0 | 1.6 | 4.8 | 0.00 | 0.41 | 0.41 | 84 | 1009.6 |
| 20260506212347 | 18 | 291 | 1.6 | 3.2 | 0.00 | 0.41 | 0.41 | 84 | 1009.5 |
| 20260506211842 | 18 | 285 | 0.0 | 1.6 | 0.00 | 0.41 | 0.41 | 83 | 1009.3 |
| 20260506211339 | 18 | 292 | 3.2 | 12.9 | 0.00 | 0.41 | 0.41 | 85 | 1009.4 |
| 20260506210836 | 17 | 307 | 0.0 | 1.6 | 0.00 | 0.41 | 0.41 | 86 | 1009.3 |
| 20260506210333 | 17 | 249 | 3.2 | 4.8 | 0.00 | 0.41 | 0.41 | 85 | 1009.5 |
| 20260506205830 | 17 | 252 | 3.2 | 9.7 | 0.00 | 0.41 | 0.41 | 86 | 1009.5 |
| 20260506205325 | 17 | 189 | 4.8 | 9.7 | 0.00 | 0.41 | 0.41 | 86 | 1009.4 |
| 20260506204817 | 17 | 299 | 6.4 | 11.3 | 0.00 | 0.41 | 0.41 | 87 | 1009.3 |
| 20260506204314 | 18 | 205 | 1.6 | 12.9 | 0.00 | 0.41 | 0.41 | 87 | 1009.1 |
| 20260506203811 | 18 | 248 | 3.2 | 11.3 | 0.00 | 0.41 | 0.41 | 84 | 1008.9 |
| 20260506203303 | 18 | 278 | 3.2 | 9.7 | 0.00 | 0.41 | 0.41 | 87 | 1008.8 |
| 20260506202800 | 18 | 262 | 0.0 | 0.0 | 0.00 | 0.41 | 0.41 | 89 | 1008.8 |
| 20260506202256 | 18 | 262 | 0.0 | 0.0 | 0.00 | 0.41 | 0.41 | 89 | 1008.8 |
| 20260506201747 | 18 | 262 | 0.0 | 0.0 | 0.00 | 0.41 | 0.41 | 88 | 1008.7 |
| 20260506201244 | 18 | 262 | 0.0 | 1.6 | 0.00 | 0.41 | 0.41 | 88 | 1008.7 |
| 20260506200741 | 18 | 264 | 0.0 | 1.6 | 0.00 | 0.41 | 0.41 | 88 | 1008.6 |
| 20260506200238 | 18 | 310 | 0.0 | 0.0 | 0.00 | 0.41 | 0.41 | 88 | 1008.6 |
| 20260506195734 | 18 | 253 | 0.0 | 0.0 | 0.00 | 0.41 | 0.41 | 90 | 1008.7 |
| 20260506195231 | 18 | 253 | 0.0 | 0.0 | 0.00 | 0.41 | 0.41 | 90 | 1008.7 |
| 20260506194728 | 18 | 254 | 0.0 | 0.0 | 0.00 | 0.41 | 0.41 | 91 | 1008.6 |
| 20260506194224 | 18 | 254 | 0.0 | 1.6 | 0.00 | 0.41 | 0.41 | 89 | 1008.7 |
| 20260506193722 | 18 | 78 | 0.0 | 0.0 | 0.00 | 0.41 | 0.41 | 88 | 1008.7 |
| 20260506193219 | 18 | 109 | 0.0 | 1.6 | 0.00 | 0.41 | 0.41 | 90 | 1008.6 |
| 20260506192715 | 18 | 100 | 1.6 | 3.2 | 0.00 | 0.41 | 0.41 | 89 | 1008.6 |
| 20260506192212 | 18 | 100 | 0.0 | 0.0 | 0.00 | 0.41 | 0.41 | 92 | 1008.6 |
| 20260506191709 | 18 | 100 | 0.0 | 0.0 | 0.00 | 0.41 | 0.41 | 92 | 1008.6 |
| 20260506191205 | 17 | 100 | 0.0 | 0.0 | 0.00 | 0.41 | 0.41 | 93 | 1008.8 |
| 20260506190703 | 17 | 52 | 0.0 | 1.6 | 0.00 | 0.41 | 0.41 | 93 | 1009.0 |
| 20260506190159 | 18 | 35 | 0.0 | 0.0 | 0.00 | 0.41 | 0.41 | 92 | 1008.8 |